Lid_Strength_Index
7 7 7 7 7 7 7 7 9 8 8 7 6 5 5 4 4 4 4 4 3 3 3 2 2 2 1 1 1 0 1 1 1 0 -0 -0 -0 -0 -0 -0 -0 -0 -0 -0
8 7 7 8 7 7 7 7 7 7 7 5 5 4 5 4 4 4 4 4 3 3 3 3 2 2 2 1 1 1 1 1 0 0 0 0 0 0 -0 0 -0 -0 0 0
10 7 7 9 7 7 7 6 6 8 6 5 6 6 5 5 4 4 4 3 3 3 2 2 2 2 3 2 1 2 1 1 1 0 1 1 0 0 1 1 0 0 0 0
10 8 13 7 5 6 6 6 5 5 5 5 5 5 4 4 4 4 3 3 3 2 2 2 1 1 1 2 2 2 2 2 1 1 1 1 1 1 1 0 1 1 1 0
11 10 8 7 6 6 7 7 5 5 5 5 5 4 5 3 3 3 3 2 2 1 1 1 1 1 1 1 1 1 2 1 1 1 1 1 1 1 1 1 1 1 0 0
9 11 13 7 5 4 5 9 5 5 5 5 5 8 6 3 3 3 2 2 2 1 1 1 1 1 1 2 1 2 1 1 0 1 1 1 1 1 1 0 1 1 1 0
9 10 9 5 5 4 10 8 4 4 4 5 6 5 4 3 3 2 2 2 1 1 1 1 1 1 2 2 2 1 0 1 1 1 1 1 1 0 1 1 1 1 1 0
9 10 12 4 5 7 5 4 4 4 3 4 4 3 3 3 2 2 2 2 1 2 2 1 1 1 1 2 1 1 1 1 1 1 1 1 1 1 1 1 1 2 1 1
7 8 4 4 4 3 3 4 3 3 3 3 4 3 3 2 2 2 2 2 1 1 1 1 1 1 2 1 1 1 1 1 1 1 1 1 1 2 2 2 2 2 2 3
7 5 5 4 3 3 2 3 2 2 3 3 3 3 3 2 2 2 2 2 1 1 2 2 1 1 1 1 1 1 2 1 1 1 3 5 4 5 2 2 2 3 4 3
6 5 4 4 3 3 3 2 3 2 2 3 2 3 2 2 2 2 2 1 1 2 2 2 1 1 1 1 1 1 1 2 2 3 3 5 8 9 8 7 8 2 2 2
7 4 4 4 3 2 3 3 2 2 3 2 2 3 2 2 2 2 2 1 2 1 2 1 1 1 1 0 1 1 2 2 3 3 3 4 5 7 11 12 13 12 13 6
5 4 4 3 2 2 2 2 2 2 2 2 2 2 2 2 2 3 2 2 2 2 1 1 1 2 1 1 1 2 2 3 2 3 3 4 4 5 7 9 12 13 13 12
3 3 4 4 3 2 2 2 2 2 2 2 2 2 2 2 2 2 2 2 1 1 2 2 2 2 1 1 1 2 2 6 2 2 4 4 4 4 5 6 7 8 13 11
3 3 3 3 2 2 2 2 3 3 2 2 2 2 2 2 2 2 2 1 1 2 2 2 2 2 1 1 2 2 3 2 2 2 2 2 2 3 5 6 7 8 7 10
3 3 3 3 3 3 3 3 3 3 2 2 2 2 2 2 1 1 1 1 2 3 2 2 2 1 1 1 1 1 2 3 2 2 2 1 1 2 3 4 5 5 5 6
4 4 4 4 3 3 3 3 2 2 2 2 2 2 2 2 2 2 2 1 2 2 2 1 2 1 0 1 2 2 1 1 2 1 2 1 1 2 1 1 3 3 3 4
2 2 2 3 3 3 3 2 2 2 2 2 2 2 2 2 2 2 2 1 1 2 1 1 1 1 1 1 2 2 2 2 1 2 2 2 2 2 4 4 4 4 4 4
2 3 2 2 2 3 3 3 2 2 1 1 2 2 2 2 2 2 2 2 2 3 2 1 1 1 1 1 2 2 2 2 3 2 2 4 3 3 3 4 4 4 4 3
2 2 2 2 2 2 2 2 1 2 1 2 2 2 2 2 1 2 1 2 2 2 1 1 1 2 3 2 2 3 2 3 3 4 4 4 4 4 4 6 5 3 2 2
2 2 2 2 2 2 2 1 2 2 2 1 2 2 2 2 1 1 2 3 1 1 1 2 2 2 1 2 2 3 3 3 3 4 5 5 4 5 4 4 3 3 3 3
2 2 2 2 2 2 1 1 1 2 2 2 1 2 2 2 2 1 1 2 1 3 2 2 2 2 2 3 2 2 3 3 3 4 4 3 3 3 2 2 1 1 0 0
2 2 2 2 2 2 1 1 2 2 2 2 2 2 2 2 2 2 3 1 0 1 1 1 2 3 3 3 2 2 2 2 3 3 3 2 1 1 1 1 0 0 0 0
2 2 2 1 1 2 2 2 1 1 2 1 1 1 1 2 2 1 0 3 3 2 1 2 3 4 5 3 1 1 2 2 2 1 1 3 0 0 0 0 0 -0 -0 1
2 2 2 2 3 3 2 1 2 1 2 2 1 1 1 1 1 1 0 0 3 1 1 4 5 5 2 1 1 1 0 0 0 0 0 0 0 0 0 -0 -0 -0 0 1
2 2 2 2 2 2 2 2 3 2 2 2 2 1 1 1 0 1 0 1 0 1 0 0 1 2 1 0 0 0 0 0 0 -0 0 -0 -0 -0 -0 0 1 1 1 2
2 4 1 1 1 1 1 2 2 2 2 2 2 1 1 1 1 1 2 0 0 0 0 0 0 1 -0 0 0 -0 -0 -0 1 -0 -0 -0 -0 -0 0 0 1 1 1 1